OneWeb SL0663

operational
NORAD ID: 55823 Int'l Des: 2023-029 Owner: ONEWEBN Country: UK Constellation: oneweb
LEOCIRCULARPOLARONEWEB_TYPE

Über OneWeb SL0663

Beschreibung wird geladen...

Live-Position

3D-Globus wird geladen...

Nächste Überflüge

Höhenverlauf

Altitude vs Time

uPlot chart will show altitude changes over time

Zweizeiliger Elementsatz

1 55823U 23029AD 25353.85835524 .00000015 00000-0 49770-5 0 9995
2 55823 87.9228 310.2589 0002143 70.8783 289.2582 13.20853764137479
Epoch: 19. Dez. 2025 • Age: 17 hours

Aktueller Status

Höhe 1185.3 km
Geschwindigkeit 7.26 km/s
Subsatellitenpunkt -1.93°S, 167.42°W
Startdatum 9. März 2023
Alter 2.7 years
Typ internet

Technische Details

Klassifizierung Payload
Masse 148.00 kg
Trockenmasse 140.00 kg
Gesamtmasse 148.00 kg
Länge 1.30 m
Durchmesser 1.00 m
Spannweite 5.00 m
Form Trapezoid+2 pan
Hersteller ONEWUS
Bus-Typ ARROW
Phasenstatus In Orbit
Besitzer/Staat ONEWEBN/UK

Große Konstellationen

Loading constellations...